Mt Hood
Timberline - Magic Mile Chair
Latest observation 08/31 21:00 PDT
| Time (PDT) | Temp °F 6990' | RH % 6990' | Min mph 6990' | Spd mph 6990' | Gust mph 6990' | Dir ° 6990' |
|---|---|---|---|---|---|---|
| 08/31 21:00 | 58 | 43 | 0 | 0 | 1 | -7999 |
| 08/31 20:00 | 59 | 42 | 0 | 0 | 0 | -7999 |
| 08/31 19:00 | 61 | 40 | 0 | 3 | 13 | -7999 |
| 08/31 18:00 | 63 | 41 | 0 | 10 | 19 | -7999 |
| 08/31 17:00 | 65 | 33 | 0 | 7 | 16 | -7999 |
| 08/31 16:00 | 63 | 30 | 0 | 8 | 20 | -7999 |
| 08/31 15:00 | 64 | 28 | 0 | 9 | 17 | -7999 |
| 08/31 14:00 | 64 | 25 | 0 | 7 | 18 | -7999 |
| 08/31 13:00 | 64 | 23 | 0 | 6 | 15 | -7999 |
| 08/31 12:00 | 61 | 25 | 3 | 9 | 16 | 119 |
| 08/31 11:00 | 59 | 24 | 0 | 11 | 21 | 114 |
| 08/31 10:00 | 58 | 25 | 5 | 12 | 21 | 114 |
| 08/31 09:00 | 57 | 26 | 6 | 13 | 24 | 98 |
| 08/31 08:00 | 55 | 28 | 4 | 10 | 17 | 101 |
| 08/31 07:00 | 52 | 33 | 2 | 10 | 17 | 98 |
| 08/31 06:00 | 52 | 36 | 4 | 8 | 16 | 106 |
| 08/31 05:00 | 52 | 32 | 5 | 9 | 12 | 100 |
| 08/31 04:00 | 51 | 34 | 3 | 8 | 11 | 102 |
| 08/31 03:00 | 50 | 43 | 7 | 9 | 13 | 105 |
| 08/31 02:00 | 50 | 57 | 3 | 9 | 14 | 105 |
| 08/31 01:00 | 54 | 44 | 0 | 2 | 6 | 105 |
| 08/31 00:00 | 52 | 52 | 1 | 5 | 10 | 109 |
| 08/30 23:00 | 52 | 53 | 5 | 8 | 10 | 101 |
| 08/30 22:00 | 51 | 58 | 6 | 8 | 12 | 101 |

